| time (UTC) | temp F | wind direction | speed MPH | gust MPH | rain 1hr in | rain 24hr in | rain mn in | humidity % | barometer mb |
| 20260506014812 | 64 | 175 | 5.0 | 6.0 | 0.00 | 0.37 | 0.37 | 98 | 998.4 |
| 20260506014256 | 64 | 186 | 5.0 | 6.0 | 0.00 | 0.37 | 0.37 | 98 | 998.4 |
| 20260506013753 | 64 | 168 | 5.0 | 6.0 | 0.00 | 0.37 | 0.37 | 98 | 998.6 |
| 20260506013228 | 64 | 178 | 4.0 | 6.0 | 0.00 | 0.37 | 0.37 | 98 | 998.5 |
| 20260506012726 | 64 | 169 | 5.0 | 6.0 | 0.00 | 0.37 | 0.37 | 98 | 998.8 |
| 20260506012450 | 64 | 171 | 5.0 | 6.0 | 0.00 | 0.37 | 0.37 | 98 | 998.5 |
| 20260506011725 | 64 | 178 | 5.0 | 6.0 | 0.00 | 0.37 | 0.37 | 98 | 998.9 |
| 20260506011221 | 64 | 183 | 4.0 | 6.0 | 0.00 | 0.37 | 0.37 | 98 | 998.7 |
| 20260506010939 | 64 | 180 | 5.0 | 6.0 | 0.00 | 0.37 | 0.37 | 98 | 998.8 |
| 20260506010213 | 64 | 172 | 5.0 | 6.0 | 0.00 | 0.37 | 0.37 | 98 | 998.7 |
| 20260506005710 | 64 | 181 | 5.0 | 6.0 | 0.00 | 0.37 | 0.37 | 98 | 998.9 |
| 20260506005205 | 63 | 182 | 5.0 | 6.0 | 0.00 | 0.37 | 0.37 | 98 | 998.9 |
| 20260506004700 | 63 | 174 | 5.0 | 6.0 | 0.00 | 0.37 | 0.37 | 98 | 999.0 |
| 20260506004647 | 63 | 174 | 5.0 | 6.0 | 0.00 | 0.37 | 0.37 | 98 | 999.1 |
| 20260506004140 | 63 | 169 | 5.0 | 6.0 | 0.00 | 0.37 | 0.37 | 98 | 999.1 |
| 20260506003153 | 63 | 167 | 5.0 | 6.0 | 0.01 | 0.37 | 0.37 | 98 | 999.1 |
| 20260506002644 | 63 | 179 | 5.0 | 6.0 | 0.01 | 0.37 | 0.37 | 98 | 999.2 |
| 20260506002123 | 63 | 168 | 5.0 | 6.0 | 0.02 | 0.37 | 0.37 | 98 | 999.1 |
| 20260506001623 | 63 | 167 | 6.0 | 6.0 | 0.02 | 0.37 | 0.37 | 98 | 999.2 |
| 20260506001112 | 63 | 180 | 4.0 | 6.0 | 0.02 | 0.37 | 0.37 | 98 | 999.3 |
| 20260506000608 | 63 | 177 | 5.0 | 6.0 | 0.02 | 0.37 | 0.37 | 98 | 999.1 |
| 20260506000330 | 63 | 160 | 6.0 | 6.0 | 0.03 | 0.37 | 0.37 | 98 | 999.2 |
| 20260505235553 | 63 | 166 | 6.0 | 6.0 | 0.04 | 0.37 | 0.37 | 98 | 999.2 |
| 20260505235053 | 63 | 163 | 5.0 | 7.0 | 0.06 | 0.37 | 0.37 | 98 | 999.4 |
| 20260505234531 | 63 | 163 | 6.0 | 7.0 | 0.07 | 0.37 | 0.37 | 98 | 999.4 |
| 20260505234022 | 63 | 164 | 5.0 | 8.0 | 0.08 | 0.37 | 0.37 | 98 | 999.3 |
| 20260505233525 | 63 | 180 | 4.0 | 8.0 | 0.09 | 0.37 | 0.37 | 98 | 999.2 |
| 20260505233009 | 63 | 171 | 5.0 | 8.0 | 0.10 | 0.37 | 0.37 | 98 | 999.2 |
| 20260505232454 | 63 | 169 | 5.0 | 7.0 | 0.10 | 0.36 | 0.36 | 98 | 999.1 |
| 20260505231952 | 63 | 166 | 6.0 | 7.0 | 0.09 | 0.36 | 0.36 | 98 | 999.1 |
| 20260505231452 | 63 | 165 | 5.0 | 7.0 | 0.09 | 0.35 | 0.35 | 98 | 999.0 |
| 20260505230951 | 63 | 162 | 5.0 | 7.0 | 0.09 | 0.35 | 0.35 | 98 | 999.1 |
| 20260505230447 | 63 | 165 | 6.0 | 6.0 | 0.09 | 0.35 | 0.35 | 98 | 999.3 |
| 20260505225923 | 63 | 177 | 5.0 | 6.0 | 0.08 | 0.34 | 0.34 | 98 | 999.1 |
| 20260505225421 | 63 | 158 | 6.0 | 7.0 | 0.07 | 0.33 | 0.33 | 98 | 999.0 |
| 20260505224920 | 63 | 161 | 6.0 | 8.0 | 0.06 | 0.31 | 0.31 | 98 | 999.2 |
| 20260505224420 | 63 | 155 | 5.0 | 8.0 | 0.05 | 0.30 | 0.30 | 98 | 999.2 |
| 20260505223917 | 63 | 162 | 6.0 | 6.0 | 0.03 | 0.29 | 0.29 | 98 | 999.0 |
| 20260505223413 | 63 | 167 | 6.0 | 6.0 | 0.02 | 0.27 | 0.27 | 98 | 999.1 |
| 20260505223133 | 63 | 176 | 5.0 | 6.0 | 0.01 | 0.27 | 0.27 | 98 | 999.2 |
| 20260505222623 | 63 | 168 | 4.0 | 6.0 | 0.01 | 0.26 | 0.26 | 98 | 999.1 |
| 20260505221900 | 63 | 168 | 5.0 | 6.0 | 0.01 | 0.26 | 0.26 | 98 | 998.9 |
| 20260505221356 | 63 | 172 | 5.0 | 6.0 | 0.01 | 0.26 | 0.26 | 98 | 999.0 |
| 20260505221102 | 63 | 166 | 6.0 | 7.0 | 0.01 | 0.26 | 0.26 | 98 | 999.1 |
| 20260505220803 | 63 | 178 | 5.0 | 7.0 | 0.01 | 0.26 | 0.26 | 98 | 999.0 |
| 20260505215813 | 63 | 143 | 7.0 | 7.0 | 0.01 | 0.26 | 0.26 | 98 | 998.9 |
| 20260505215309 | 63 | 159 | 6.0 | 6.0 | 0.01 | 0.26 | 0.26 | 98 | 998.9 |
| 20260505214755 | 63 | 162 | 5.0 | 6.0 | 0.01 | 0.26 | 0.26 | 98 | 998.9 |
| 20260505214251 | 63 | 162 | 5.0 | 6.0 | 0.01 | 0.26 | 0.26 | 98 | 998.7 |
| 20260505213748 | 63 | 168 | 5.0 | 6.0 | 0.02 | 0.26 | 0.26 | 98 | 998.9 |
| 20260505213244 | 64 | 154 | 6.0 | 6.0 | 0.02 | 0.26 | 0.26 | 98 | 998.7 |
| 20260505212739 | 64 | 167 | 6.0 | 6.0 | 0.03 | 0.26 | 0.26 | 98 | 998.6 |
| 20260505212436 | 64 | 159 | 6.0 | 7.0 | 0.05 | 0.26 | 0.26 | 98 | 998.6 |
| 20260505211711 | 64 | 169 | 5.0 | 7.0 | 0.06 | 0.26 | 0.26 | 98 | 998.4 |
| 20260505211206 | 64 | 169 | 5.0 | 7.0 | 0.06 | 0.26 | 0.26 | 98 | 998.4 |
| 20260505210715 | 64 | 166 | 5.0 | 6.0 | 0.06 | 0.26 | 0.26 | 98 | 998.4 |
| 20260505210159 | 64 | 160 | 6.0 | 6.0 | 0.05 | 0.25 | 0.25 | 98 | 998.3 |
| 20260505205644 | 64 | 164 | 5.0 | 6.0 | 0.05 | 0.25 | 0.25 | 98 | 998.3 |
| 20260505205120 | 64 | 162 | 5.0 | 7.0 | 0.05 | 0.25 | 0.25 | 98 | 998.1 |
| 20260505204839 | 64 | 160 | 5.0 | 7.0 | 0.05 | 0.25 | 0.25 | 98 | 998.1 |
| 20260505204112 | 64 | 171 | 5.0 | 6.0 | 0.05 | 0.24 | 0.24 | 98 | 998.1 |
| 20260505203830 | 64 | 158 | 5.0 | 6.0 | 0.04 | 0.24 | 0.24 | 98 | 998.1 |
| 20260505203052 | 64 | 155 | 5.0 | 6.0 | 0.04 | 0.23 | 0.23 | 98 | 998.2 |
| 20260505202547 | 64 | 156 | 5.0 | 6.0 | 0.02 | 0.22 | 0.22 | 98 | 998.0 |
| 20260505202045 | 64 | 168 | 5.0 | 6.0 | 0.02 | 0.20 | 0.20 | 98 | 997.9 |
| 20260505201530 | 64 | 170 | 5.0 | 6.0 | 0.02 | 0.20 | 0.20 | 98 | 997.9 |
| 20260505201016 | 64 | 168 | 5.0 | 6.0 | 0.03 | 0.20 | 0.20 | 98 | 998.0 |
| 20260505200516 | 65 | 166 | 5.0 | 6.0 | 0.04 | 0.20 | 0.20 | 98 | 997.9 |
| 20260505200242 | 65 | 160 | 5.0 | 6.0 | 0.06 | 0.20 | 0.20 | 98 | 997.8 |
| 20260505195513 | 65 | 163 | 5.0 | 6.0 | 0.06 | 0.20 | 0.20 | 98 | 997.8 |
| 20260505194946 | 65 | 170 | 5.0 | 6.0 | 0.09 | 0.20 | 0.20 | 98 | 997.8 |
| 20260505194445 | 65 | 153 | 5.0 | 6.0 | 0.11 | 0.20 | 0.20 | 98 | 997.7 |
| 20260505193942 | 65 | 166 | 5.0 | 6.0 | 0.14 | 0.20 | 0.20 | 98 | 997.7 |
| 20260505193427 | 65 | 161 | 5.0 | 6.0 | 0.14 | 0.20 | 0.20 | 98 | 997.6 |
| 20260505192915 | 65 | 175 | 4.0 | 6.0 | 0.15 | 0.19 | 0.19 | 98 | 997.5 |
| 20260505192416 | 65 | 171 | 5.0 | 6.0 | 0.16 | 0.20 | 0.19 | 98 | 997.6 |
| 20260505191915 | 65 | 167 | 5.0 | 6.0 | 0.17 | 0.19 | 0.19 | 98 | 997.6 |
| 20260505191858 | 65 | 169 | 4.0 | 6.0 | 0.17 | 0.18 | 0.18 | 98 | 997.5 |
| 20260505190907 | 65 | 171 | 5.0 | 6.0 | 0.16 | 0.17 | 0.17 | 97 | 997.5 |
| 20260505190403 | 65 | 176 | 5.0 | 6.0 | 0.15 | 0.16 | 0.15 | 98 | 997.6 |
| 20260505185859 | 65 | 168 | 4.0 | 6.0 | 0.13 | 0.14 | 0.14 | 97 | 997.4 |
| 20260505185355 | 65 | 175 | 4.0 | 6.0 | 0.13 | 0.14 | 0.13 | 97 | 997.4 |
| 20260505184851 | 65 | 168 | 5.0 | 6.0 | 0.10 | 0.11 | 0.11 | 97 | 997.3 |
| 20260505184345 | 65 | 166 | 5.0 | 6.0 | 0.07 | 0.08 | 0.08 | 97 | 997.2 |
| 20260505183842 | 65 | 174 | 5.0 | 6.0 | 0.05 | 0.06 | 0.06 | 97 | 997.3 |
| 20260505183327 | 65 | 164 | 5.0 | 6.0 | 0.05 | 0.06 | 0.05 | 97 | 997.2 |
| 20260505182824 | 65 | 168 | 5.0 | 6.0 | 0.04 | 0.04 | 0.04 | 97 | 997.3 |
| 20260505182320 | 65 | 174 | 4.0 | 6.0 | 0.02 | 0.03 | 0.03 | 97 | 997.2 |
| 20260505181813 | 65 | 176 | 5.0 | 6.0 | 0.01 | 0.02 | 0.01 | 97 | 997.1 |
| 20260505181313 | 65 | 177 | 5.0 | 6.0 | 0.00 | 0.01 | 0.01 | 97 | 997.3 |
| 20260505180813 | 65 | 164 | 5.0 | 6.0 | 0.00 | 0.01 | 0.00 | 97 | 997.1 |
| 20260505180313 | 65 | 171 | 5.0 | 6.0 | 0.00 | 0.01 | 0.00 | 97 | 997.2 |
| 20260505175808 | 65 | 167 | 5.0 | 6.0 | 0.00 | 0.01 | 0.00 | 97 | 997.2 |
| 20260505175534 | 65 | 160 | 5.0 | 6.0 | 0.00 | 0.01 | 0.00 | 97 | 997.1 |
| 20260505174751 | 65 | 171 | 5.0 | 6.0 | 0.00 | 0.01 | 0.00 | 97 | 997.3 |
| 20260505174246 | 65 | 164 | 5.0 | 6.0 | 0.00 | 0.01 | 0.00 | 97 | 997.2 |
| 20260505173743 | 65 | 167 | 5.0 | 6.0 | 0.00 | 0.01 | 0.00 | 97 | 997.2 |
| 20260505173238 | 65 | 167 | 5.0 | 6.0 | 0.00 | 0.01 | 0.00 | 97 | 997.4 |
| 20260505172713 | 65 | 167 | 5.0 | 6.0 | 0.00 | 0.01 | 0.00 | 97 | 997.2 |
| 20260505172209 | 65 | 169 | 5.0 | 6.0 | 0.00 | 0.01 | 0.00 | 97 | 997.1 |
| 20260505171705 | 65 | 180 | 4.0 | 6.0 | 0.00 | 0.01 | 0.00 | 97 | 997.2 |
| 20260505171201 | 65 | 176 | 5.0 | 6.0 | 0.00 | 0.01 | 0.00 | 97 | 997.4 |
| 20260505170658 | 65 | 173 | 5.0 | 6.0 | 0.00 | 0.01 | 0.00 | 97 | 997.3 |
| 20260505170153 | 65 | 171 | 4.0 | 6.0 | 0.00 | 0.01 | 0.00 | 97 | 997.2 |
| 20260505165649 | 66 | 167 | 5.0 | 6.0 | 0.00 | 0.01 | 0.00 | 97 | 997.2 |
| 20260505165114 | 66 | 169 | 5.0 | 6.0 | 0.00 | 0.01 | 0.00 | 97 | 997.3 |
| 20260505164610 | 66 | 172 | 5.0 | 6.0 | 0.00 | 0.01 | 0.00 | 97 | 997.3 |
| 20260505164056 | 66 | 156 | 6.0 | 6.0 | 0.00 | 0.01 | 0.00 | 97 | 997.3 |
| 20260505163813 | 66 | 166 | 5.0 | 6.0 | 0.00 | 0.01 | 0.00 | 97 | 997.5 |
| 20260505163047 | 66 | 174 | 4.0 | 6.0 | 0.00 | 0.01 | 0.00 | 97 | 997.6 |
| 20260505162556 | 66 | 171 | 4.0 | 6.0 | 0.00 | 0.01 | 0.00 | 96 | 997.5 |
| 20260505162030 | 66 | 171 | 4.0 | 6.0 | 0.00 | 0.01 | 0.00 | 96 | 997.7 |
| 20260505161515 | 66 | 175 | 5.0 | 6.0 | 0.00 | 0.01 | 0.00 | 96 | 997.6 |
| 20260505161231 | 66 | 176 | 4.0 | 6.0 | 0.00 | 0.01 | 0.00 | 96 | 997.6 |
| 20260505160507 | 66 | 173 | 4.0 | 6.0 | 0.00 | 0.01 | 0.00 | 96 | 997.6 |
| 20260505160208 | 66 | 167 | 5.0 | 6.0 | 0.00 | 0.00 | 0.00 | 96 | 997.7 |
| 20260505152917 | 66 | 186 | 4.0 | 5.0 | 0.00 | 0.00 | 0.00 | 96 | 998.2 |
| 20260505152413 | 66 | 174 | 4.0 | 5.0 | 0.00 | 0.00 | 0.00 | 96 | 998.0 |
| 20260505151909 | 66 | 180 | 4.0 | 5.0 | 0.00 | 0.00 | 0.00 | 96 | 998.2 |
| 20260505151409 | 66 | 173 | 5.0 | 5.0 | 0.00 | 0.00 | 0.00 | 96 | 998.1 |
| 20260505150908 | 66 | 176 | 5.0 | 5.0 | 0.00 | 0.00 | 0.00 | 96 | 998.1 |
| 20260505150356 | 66 | 181 | 4.0 | 5.0 | 0.00 | 0.00 | 0.00 | 96 | 998.2 |
| 20260505140216 | 67 | 172 | 4.0 | 6.0 | 0.00 | 0.00 | 0.00 | 95 | 998.4 |
| 20260505130106 | 67 | 177 | 4.0 | 6.0 | 0.00 | 0.00 | 0.00 | 94 | 998.4 |
| 20260505124553 | 67 | 178 | 4.0 | 6.0 | 0.00 | 0.00 | 0.00 | 93 | 998.5 |
| 20260505124035 | 67 | 175 | 4.0 | 5.0 | 0.00 | 0.00 | 0.00 | 93 | 998.8 |
| 20260505123534 | 67 | 181 | 4.0 | 5.0 | 0.00 | 0.00 | 0.00 | 93 | 998.6 |
| 20260505123010 | 67 | 176 | 5.0 | 5.0 | 0.00 | 0.00 | 0.00 | 93 | 998.6 |
| 20260505122456 | 67 | 171 | 4.0 | 5.0 | 0.00 | 0.00 | 0.00 | 93 | 998.6 |
| 20260505121952 | 67 | 171 | 5.0 | 5.0 | 0.00 | 0.00 | 0.00 | 93 | 998.6 |
| 20260505121437 | 67 | 177 | 4.0 | 6.0 | 0.00 | 0.00 | 0.00 | 92 | 998.7 |
| 20260505120934 | 67 | 173 | 4.0 | 6.0 | 0.00 | 0.00 | 0.00 | 92 | 998.6 |
| 20260505120433 | 67 | 176 | 4.0 | 6.0 | 0.00 | 0.00 | 0.00 | 93 | 998.5 |
| 20260505115926 | 68 | 167 | 5.0 | 6.0 | 0.00 | 0.00 | 0.00 | 93 | 998.6 |
| 20260505115640 | 68 | 178 | 5.0 | 6.0 | 0.00 | 0.00 | 0.00 | 93 | 998.8 |
| 20260505114906 | 68 | 171 | 4.0 | 6.0 | 0.00 | 0.00 | 0.00 | 93 | 998.8 |
| 20260505114402 | 68 | 170 | 5.0 | 6.0 | 0.00 | 0.00 | 0.00 | 93 | 998.5 |
| 20260505113849 | 68 | 167 | 4.0 | 6.0 | 0.00 | 0.00 | 0.00 | 93 | 998.8 |
| 20260505113345 | 68 | 168 | 5.0 | 5.0 | 0.00 | 0.00 | 0.00 | 93 | 998.7 |
| 20260505112841 | 68 | 173 | 4.0 | 6.0 | 0.00 | 0.00 | 0.00 | 93 | 998.8 |
| 20260505112326 | 68 | 170 | 5.0 | 6.0 | 0.00 | 0.00 | 0.00 | 93 | 998.7 |
| 20260505111812 | 68 | 160 | 5.0 | 5.0 | 0.00 | 0.00 | 0.00 | 93 | 998.7 |
| 20260505111308 | 68 | 169 | 5.0 | 5.0 | 0.00 | 0.00 | 0.00 | 93 | 998.8 |
| 20260505110802 | 68 | 167 | 5.0 | 6.0 | 0.00 | 0.00 | 0.00 | 93 | 998.6 |
| 20260505110302 | 68 | 168 | 4.0 | 6.0 | 0.00 | 0.00 | 0.00 | 92 | 998.8 |
| 20260505101737 | 67 | 173 | 4.0 | 5.0 | 0.00 | 0.00 | 0.00 | 91 | 998.6 |
| 20260505101230 | 67 | 168 | 5.0 | 5.0 | 0.00 | 0.00 | 0.00 | 91 | 998.8 |
| 20260505100724 | 67 | 173 | 4.0 | 6.0 | 0.00 | 0.00 | 0.00 | 91 | 998.5 |
| 20260505100210 | 67 | 174 | 5.0 | 6.0 | 0.00 | 0.00 | 0.00 | 91 | 998.4 |
| 20260505095646 | 67 | 177 | 4.0 | 5.0 | 0.00 | 0.00 | 0.00 | 91 | 998.4 |
| 20260505095143 | 67 | 179 | 4.0 | 5.0 | 0.00 | 0.00 | 0.00 | 91 | 998.4 |
| 20260505094842 | 67 | 177 | 4.0 | 5.0 | 0.00 | 0.00 | 0.00 | 91 | 998.2 |
| 20260505094114 | 67 | 180 | 5.0 | 5.0 | 0.00 | 0.00 | 0.00 | 91 | 998.3 |
| 20260505093843 | 68 | 180 | 4.0 | 6.0 | 0.00 | 0.00 | 0.00 | 90 | 998.2 |
| 20260505093104 | 68 | 177 | 4.0 | 6.0 | 0.00 | 0.00 | 0.00 | 90 | 998.1 |
| 20260505092600 | 68 | 163 | 4.0 | 6.0 | 0.00 | 0.00 | 0.00 | 90 | 997.9 |
| 20260505092047 | 68 | 173 | 5.0 | 5.0 | 0.00 | 0.00 | 0.00 | 90 | 998.0 |
| 20260505091543 | 68 | 176 | 4.0 | 5.0 | 0.00 | 0.00 | 0.00 | 90 | 998.0 |
| 20260505091052 | 68 | 173 | 4.0 | 5.0 | 0.00 | 0.00 | 0.00 | 90 | 998.0 |
| 20260505090528 | 68 | 172 | 5.0 | 5.0 | 0.00 | 0.00 | 0.00 | 90 | 997.7 |
| 20260505090029 | 68 | 161 | 4.0 | 5.0 | 0.00 | 0.00 | 0.00 | 90 | 997.7 |
| 20260505085750 | 68 | 168 | 4.0 | 5.0 | 0.00 | 0.00 | 0.00 | 90 | 997.6 |
| 20260505085229 | 69 | 167 | 4.0 | 5.0 | 0.00 | 0.00 | 0.00 | 90 | 997.8 |
| 20260505084500 | 69 | 175 | 5.0 | 6.0 | 0.00 | 0.00 | 0.00 | 89 | 997.8 |
| 20260505083954 | 69 | 180 | 4.0 | 6.0 | 0.00 | 0.00 | 0.00 | 89 | 997.6 |
| 20260505083439 | 69 | 156 | 4.0 | 6.0 | 0.00 | 0.00 | 0.00 | 89 | 997.3 |
| 20260505082916 | 69 | 174 | 4.0 | 6.0 | 0.00 | 0.00 | 0.00 | 89 | 997.2 |
| 20260505082630 | 69 | 170 | 4.0 | 6.0 | 0.00 | 0.00 | 0.00 | 88 | 997.2 |
| 20260505081907 | 69 | 162 | 5.0 | 6.0 | 0.00 | 0.00 | 0.00 | 89 | 997.1 |
| 20260505081403 | 69 | 164 | 5.0 | 6.0 | 0.00 | 0.00 | 0.00 | 88 | 997.3 |
| 20260505080857 | 69 | 162 | 4.0 | 6.0 | 0.00 | 0.00 | 0.00 | 88 | 997.0 |
| 20260505080356 | 70 | 166 | 4.0 | 7.0 | 0.00 | 0.00 | 0.00 | 87 | 996.8 |
| 20260505075831 | 70 | 166 | 4.0 | 7.0 | 0.00 | 0.00 | 0.00 | 87 | 996.9 |
| 20260505075550 | 70 | 189 | 4.0 | 6.0 | 0.00 | 0.00 | 0.00 | 87 | 996.8 |
| 20260505074812 | 71 | 178 | 3.0 | 5.0 | 0.00 | 0.00 | 0.00 | 86 | 996.5 |
| 20260505074307 | 71 | 158 | 4.0 | 6.0 | 0.00 | 0.00 | 0.00 | 86 | 996.5 |
| 20260505073753 | 71 | 156 | 4.0 | 6.0 | 0.00 | 0.00 | 0.00 | 85 | 996.4 |
| 20260505073249 | 71 | 184 | 3.0 | 6.0 | 0.00 | 0.00 | 0.00 | 85 | 996.3 |
| 20260505072744 | 71 | 180 | 4.0 | 6.0 | 0.00 | 0.00 | 0.00 | 85 | 996.3 |
| 20260505072240 | 72 | 171 | 4.0 | 6.0 | 0.00 | 0.00 | 0.00 | 84 | 996.4 |
| 20260505071736 | 72 | 188 | 3.0 | 6.0 | 0.00 | 0.00 | 0.00 | 84 | 996.2 |
| 20260505071656 | 72 | 169 | 4.0 | 6.0 | 0.00 | 0.00 | 0.00 | 84 | 996.1 |
| 20260505070706 | 72 | 173 | 5.0 | 5.0 | 0.00 | 0.00 | 0.00 | 83 | 995.8 |
| 20260505070154 | 73 | 169 | 4.0 | 5.0 | 0.00 | 0.00 | 0.00 | 82 | 996.0 |
| 20260505065649 | 73 | 181 | 5.0 | 5.0 | 0.00 | 0.00 | 0.00 | 82 | 995.8 |
| 20260505065134 | 73 | 177 | 4.0 | 5.0 | 0.00 | 0.00 | 0.00 | 80 | 995.7 |
| 20260505064630 | 74 | 177 | 4.0 | 5.0 | 0.00 | 0.00 | 0.00 | 78 | 995.8 |
| 20260505064116 | 74 | 176 | 5.0 | 6.0 | 0.00 | 0.00 | 0.00 | 77 | 995.9 |
| 20260505064053 | 74 | 182 | 4.0 | 6.0 | 0.00 | 0.00 | 0.00 | 76 | 995.8 |
| 20260505063333 | 75 | 179 | 4.0 | 6.0 | 0.00 | 0.00 | 0.00 | 76 | 995.8 |
| 20260505062603 | 75 | 176 | 4.0 | 5.0 | 0.00 | 0.00 | 0.00 | 75 | 995.7 |
| 20260505062048 | 76 | 182 | 4.0 | 6.0 | 0.00 | 0.00 | 0.00 | 73 | 995.7 |
| 20260505061546 | 76 | 188 | 5.0 | 6.0 | 0.00 | 0.00 | 0.00 | 76 | 995.6 |
| 20260505061031 | 76 | 178 | 5.0 | 6.0 | 0.00 | 0.00 | 0.00 | 74 | 995.6 |
| 20260505060527 | 76 | 179 | 5.0 | 6.0 | 0.00 | 0.00 | 0.00 | 73 | 995.5 |
| 20260505060012 | 76 | 174 | 4.0 | 6.0 | 0.00 | 0.00 | 0.00 | 75 | 995.5 |
| 20260505055508 | 76 | 184 | 4.0 | 6.0 | 0.00 | 0.00 | 0.00 | 72 | 995.5 |
| 20260505055003 | 76 | 175 | 4.0 | 6.0 | 0.00 | 0.00 | 0.00 | 72 | 995.4 |
| 20260505054710 | 77 | 185 | 4.0 | 6.0 | 0.00 | 0.00 | 0.00 | 69 | 995.2 |
| 20260505053945 | 77 | 177 | 5.0 | 6.0 | 0.00 | 0.00 | 0.00 | 71 | 995.4 |
| 20260505053440 | 77 | 172 | 4.0 | 6.0 | 0.00 | 0.00 | 0.00 | 71 | 995.3 |
| 20260505052916 | 77 | 174 | 5.0 | 6.0 | 0.00 | 0.00 | 0.00 | 71 | 995.2 |
| 20260505052411 | 77 | 173 | 4.0 | 6.0 | 0.00 | 0.00 | 0.00 | 72 | 995.2 |
| 20260505051908 | 78 | 179 | 4.0 | 6.0 | 0.00 | 0.00 | 0.00 | 72 | 995.1 |
| 20260505051354 | 78 | 177 | 4.0 | 6.0 | 0.00 | 0.00 | 0.00 | 70 | 995.0 |
| 20260505050849 | 78 | 178 | 4.0 | 6.0 | 0.00 | 0.00 | 0.00 | 72 | 995.1 |
| 20260505050602 | 78 | 182 | 5.0 | 6.0 | 0.00 | 0.00 | 0.00 | 69 | 995.4 |
| 20260505041751 | 79 | 170 | 4.0 | 6.0 | 0.00 | 0.00 | 0.00 | 65 | 995.1 |
| 20260505041728 | 79 | 174 | 5.0 | 6.0 | 0.00 | 0.00 | 0.00 | 69 | 995.3 |
| 20260505040748 | 79 | 174 | 4.0 | 6.0 | 0.00 | 0.00 | 0.00 | 69 | 995.1 |
| 20260505040245 | 79 | 174 | 5.0 | 6.0 | 0.00 | 0.00 | 0.00 | 71 | 995.2 |
| 20260505035742 | 78 | 180 | 4.0 | 6.0 | 0.00 | 0.00 | 0.00 | 70 | 995.3 |
| 20260505035453 | 79 | 179 | 4.0 | 6.0 | 0.00 | 0.00 | 0.00 | 68 | 995.1 |
| 20260505034713 | 80 | 176 | 5.0 | 6.0 | 0.00 | 0.00 | 0.00 | 69 | 995.0 |
| 20260505034209 | 80 | 176 | 4.0 | 6.0 | 0.00 | 0.00 | 0.00 | 64 | 995.1 |
| 20260505033916 | 80 | 181 | 4.0 | 8.0 | 0.00 | 0.00 | 0.00 | 65 | 995.1 |
| 20260505033150 | 80 | 177 | 4.0 | 8.0 | 0.00 | 0.00 | 0.00 | 69 | 995.2 |
| 20260505032645 | 81 | 190 | 5.0 | 7.0 | 0.00 | 0.00 | 0.00 | 68 | 995.0 |
| 20260505032141 | 82 | 202 | 6.0 | 7.0 | 0.00 | 0.00 | 0.00 | 63 | 995.2 |
| 20260505031848 | 82 | 190 | 5.0 | 7.0 | 0.00 | 0.00 | 0.00 | 65 | 995.4 |
| 20260505031123 | 82 | 180 | 4.0 | 6.0 | 0.00 | 0.00 | 0.00 | 67 | 995.4 |
| 20260505030619 | 82 | 182 | 4.0 | 7.0 | 0.00 | 0.00 | 0.00 | 68 | 995.3 |
| 20260505030119 | 81 | 180 | 4.0 | 7.0 | 0.00 | 0.00 | 0.00 | 66 | 995.6 |
| 20260505025619 | 80 | 165 | 6.0 | 7.0 | 0.00 | 0.00 | 0.00 | 69 | 995.6 |
| 20260505025118 | 81 | 189 | 3.0 | 7.0 | 0.00 | 0.00 | 0.00 | 68 | 995.5 |
| 20260505024619 | 80 | 201 | 4.0 | 7.0 | 0.00 | 0.00 | 0.00 | 68 | 995.7 |
| 20260505024117 | 79 | 186 | 4.0 | 7.0 | 0.00 | 0.00 | 0.00 | 71 | 995.8 |
| 20260505023613 | 78 | 200 | 5.0 | 9.0 | 0.00 | 0.00 | 0.00 | 75 | 995.5 |
| 20260505023110 | 79 | 191 | 3.0 | 9.0 | 0.00 | 0.00 | 0.00 | 72 | 995.8 |
| 20260505022605 | 81 | 205 | 8.0 | 9.0 | 0.00 | 0.00 | 0.00 | 68 | 996.1 |
| 20260505022102 | 80 | 187 | 4.0 | 10.0 | 0.00 | 0.00 | 0.00 | 71 | 996.0 |
| 20260505021557 | 80 | 195 | 5.0 | 10.0 | 0.00 | 0.00 | 0.00 | 72 | 996.2 |
| 20260505021053 | 80 | 205 | 6.0 | 7.0 | 0.00 | 0.00 | 0.00 | 72 | 996.2 |
| 20260505020548 | 78 | 179 | 4.0 | 6.0 | 0.00 | 0.00 | 0.00 | 75 | 996.1 |
| 20260505020259 | 77 | 166 | 4.0 | 6.0 | 0.00 | 0.00 | 0.00 | 75 | 996.3 |
| 20260505015746 | 78 | 181 | 4.0 | 7.0 | 0.00 | 0.00 | 0.00 | 75 | 996.3 |